TimeEST,TemperatureF,Dew PointF,Humidity,Sea Level PressureIn,VisibilityMPH,Wind Direction,Wind SpeedMPH,Gust SpeedMPH,PrecipitationIn,Events,Conditions,WindDirDegrees,DateUTC
12:15 AM,22.1,-3.3,33,30.20,10.0,SE,5.8,-,N/A,,Clear,130,2014-01-04 05:15:00
12:35 AM,21.9,-2.6,34,30.19,10.0,SE,5.8,-,N/A,,Clear,140,2014-01-04 05:35:00
12:55 AM,22.5,-1.5,35,30.19,10.0,SE,5.8,-,N/A,,Clear,140,2014-01-04 05:55:00
1:15 AM,24.1,-2.6,31,30.18,10.0,SE,5.8,-,N/A,,Clear,140,2014-01-04 06:15:00
1:35 AM,24.3,-2.0,32,30.17,10.0,SE,5.8,-,N/A,,Clear,140,2014-01-04 06:35:00
1:55 AM,25.2,-4.2,28,30.17,10.0,SE,6.9,-,N/A,,Clear,140,2014-01-04 06:55:00
2:15 AM,25.5,-4.2,27,30.17,10.0,SE,5.8,-,N/A,,Clear,140,2014-01-04 07:15:00
2:35 AM,25.3,-5.6,26,30.18,10.0,SE,4.6,-,N/A,,Clear,140,2014-01-04 07:35:00
2:55 AM,25.7,-6.0,25,30.18,10.0,SE,4.6,-,N/A,,Clear,140,2014-01-04 07:55:00
3:15 AM,25.2,-3.3,29,30.18,10.0,SE,5.8,-,N/A,,Clear,140,2014-01-04 08:15:00
3:35 AM,26.4,-5.6,25,30.18,10.0,SE,4.6,-,N/A,,Clear,140,2014-01-04 08:35:00
3:55 AM,27.1,-8.7,21,30.19,10.0,SSE,4.6,-,N/A,,Clear,150,2014-01-04 08:55:00
4:15 AM,23.5,-2.9,32,30.19,10.0,Calm,Calm,-,N/A,,Clear,0,2014-01-04 09:15:00
4:35 AM,24.3,-4.2,29,30.19,10.0,Calm,Calm,-,N/A,,Clear,0,2014-01-04 09:35:00
4:55 AM,23.0,-1.1,35,30.19,10.0,WNW,4.6,-,N/A,,Clear,300,2014-01-04 09:55:00
5:15 AM,22.6,0.3,38,30.20,10.0,WNW,3.5,-,N/A,,Clear,300,2014-01-04 10:15:00
5:35 AM,23.5,-1.7,33,30.21,10.0,West,5.8,-,N/A,,Clear,270,2014-01-04 10:35:00
5:55 AM,24.6,-2.6,31,30.21,10.0,Calm,Calm,-,N/A,,Clear,0,2014-01-04 10:55:00
6:15 AM,24.1,-2.2,32,30.20,10.0,Calm,Calm,-,N/A,,Clear,0,2014-01-04 11:15:00
6:35 AM,23.2,-1.7,34,30.21,10.0,Calm,Calm,-,N/A,,Clear,0,2014-01-04 11:35:00
6:55 AM,22.3,0.5,39,30.21,10.0,West,6.9,-,N/A,,Clear,280,2014-01-04 11:55:00
7:15 AM,23.2,-0.4,36,30.22,10.0,West,5.8,-,N/A,,Clear,280,2014-01-04 12:15:00
7:35 AM,23.5,-0.9,35,30.22,10.0,West,4.6,-,N/A,,Clear,280,2014-01-04 12:35:00
7:55 AM,23.9,-0.8,34,30.23,10.0,WNW,4.6,-,N/A,,Clear,300,2014-01-04 12:55:00
8:15 AM,23.2,-0.0,37,30.23,10.0,WNW,4.6,-,N/A,,Clear,300,2014-01-04 13:15:00
8:35 AM,24.6,-0.6,34,30.23,10.0,Calm,Calm,-,N/A,,Clear,0,2014-01-04 13:35:00
8:55 AM,25.9,-1.3,31,30.23,10.0,Calm,Calm,-,N/A,,Clear,0,2014-01-04 13:55:00
9:15 AM,25.0,-0.0,34,30.23,10.0,Calm,Calm,-,N/A,,Clear,0,2014-01-04 14:15:00
9:35 AM,27.0,-1.8,29,30.23,10.0,Calm,Calm,-,N/A,,Clear,0,2014-01-04 14:35:00
9:55 AM,27.1,-2.2,28,30.23,10.0,Calm,Calm,-,N/A,,Clear,0,2014-01-04 14:55:00
10:15 AM,28.0,1.0,31,30.24,10.0,NW,3.5,-,N/A,,Clear,320,2014-01-04 15:15:00
10:35 AM,28.9,1.9,32,30.23,10.0,Calm,Calm,-,N/A,,Clear,0,2014-01-04 15:35:00
10:55 AM,31.1,2.1,29,30.22,10.0,Calm,Calm,-,N/A,,Clear,0,2014-01-04 15:55:00
11:15 AM,31.5,5.4,33,30.22,10.0,Calm,Calm,-,N/A,,Clear,0,2014-01-04 16:15:00
11:35 AM,31.6,5.7,34,30.21,10.0,NW,4.6,-,N/A,,Clear,310,2014-01-04 16:35:00
11:55 AM,32.4,7.3,35,30.20,10.0,Calm,Calm,-,N/A,,Clear,0,2014-01-04 16:55:00
12:15 PM,34.0,8.8,35,30.19,10.0,Calm,Calm,-,N/A,,Clear,0,2014-01-04 17:15:00
12:35 PM,36.5,10.9,35,30.18,10.0,Calm,Calm,-,N/A,,Clear,0,2014-01-04 17:35:00
12:55 PM,38.7,9.7,30,30.17,10.0,Calm,Calm,-,N/A,,Clear,0,2014-01-04 17:55:00
1:15 PM,39.2,10.9,31,30.16,10.0,Calm,Calm,-,N/A,,Clear,0,2014-01-04 18:15:00
1:35 PM,39.4,12.6,33,30.16,10.0,NNW,3.5,-,N/A,,Clear,330,2014-01-04 18:35:00
1:55 PM,41.9,12.2,30,30.15,10.0,Calm,Calm,-,N/A,,Clear,0,2014-01-04 18:55:00
2:15 PM,44.2,8.6,23,30.15,10.0,Calm,Calm,-,N/A,,Clear,0,2014-01-04 19:15:00
2:35 PM,44.8,9.7,24,30.15,10.0,South,3.5,-,N/A,,Clear,170,2014-01-04 19:35:00
2:55 PM,45.5,10.9,25,30.14,10.0,Calm,Calm,-,N/A,,Clear,0,2014-01-04 19:55:00
3:15 PM,45.9,3.9,18,30.13,10.0,SSE,3.5,-,N/A,,Clear,160,2014-01-04 20:15:00
3:35 PM,46.6,3.4,17,30.14,10.0,Calm,Calm,-,N/A,,Clear,0,2014-01-04 20:35:00
3:55 PM,46.4,5.4,19,30.14,10.0,Calm,Calm,-,N/A,,Clear,0,2014-01-04 20:55:00
4:15 PM,46.6,2.3,16,30.13,10.0,SSE,4.6,-,N/A,,Clear,150,2014-01-04 21:15:00
4:35 PM,46.6,3.2,17,30.13,10.0,SW,4.6,-,N/A,,Clear,230,2014-01-04 21:35:00
4:55 PM,45.7,6.4,20,30.13,10.0,SSE,3.5,-,N/A,,Clear,160,2014-01-04 21:55:00
5:15 PM,43.9,9.3,24,30.12,10.0,SSE,3.5,-,N/A,,Clear,150,2014-01-04 22:15:00
5:35 PM,41.9,11.7,29,30.12,10.0,SE,4.6,-,N/A,,Clear,130,2014-01-04 22:35:00
5:55 PM,42.1,11.8,29,30.12,10.0,SSE,6.9,-,N/A,,Clear,150,2014-01-04 22:55:00
6:15 PM,41.0,12.9,32,30.12,10.0,SSE,5.8,-,N/A,,Clear,160,2014-01-04 23:15:00
6:35 PM,39.2,13.6,35,30.12,10.0,SE,5.8,-,N/A,,Clear,140,2014-01-04 23:35:00
6:55 PM,41.7,11.3,29,30.12,10.0,Calm,Calm,-,N/A,,Clear,0,2014-01-04 23:55:00
7:15 PM,41.9,10.2,27,30.12,10.0,South,3.5,-,N/A,,Clear,170,2014-01-05 00:15:00
7:35 PM,40.6,11.3,30,30.12,10.0,South,4.6,-,N/A,,Clear,180,2014-01-05 00:35:00
7:55 PM,39.7,11.3,31,30.12,10.0,Calm,Calm,-,N/A,,Clear,0,2014-01-05 00:55:00
8:15 PM,38.8,11.5,33,30.13,10.0,SSE,6.9,-,N/A,,Clear,150,2014-01-05 01:15:00
8:35 PM,38.3,13.1,36,30.13,10.0,SSE,6.9,-,N/A,,Clear,160,2014-01-05 01:35:00
8:55 PM,39.2,14.5,37,30.13,10.0,SSE,6.9,-,N/A,,Clear,160,2014-01-05 01:55:00
9:15 PM,39.6,16.3,39,30.13,10.0,SSE,5.8,-,N/A,,Clear,150,2014-01-05 02:15:00
9:35 PM,40.8,19.8,43,30.13,10.0,SSE,3.5,-,N/A,,Clear,150,2014-01-05 02:35:00
9:55 PM,40.8,22.5,48,30.13,10.0,South,5.8,-,N/A,,Clear,170,2014-01-05 02:55:00
10:15 PM,41.7,25.9,53,30.12,10.0,SSW,9.2,-,N/A,,Clear,200,2014-01-05 03:15:00
10:35 PM,43.0,26.8,53,30.12,10.0,SW,6.9,-,N/A,,Clear,220,2014-01-05 03:35:00
10:55 PM,41.2,26.2,55,30.12,10.0,SSW,3.5,-,N/A,,Clear,210,2014-01-05 03:55:00
11:15 PM,41.7,25.5,53,30.11,10.0,SSW,3.5,-,N/A,,Clear,200,2014-01-05 04:15:00
11:35 PM,42.6,25.9,52,30.11,10.0,Calm,Calm,-,N/A,,Clear,0,2014-01-05 04:35:00
11:55 PM,42.1,26.4,54,30.11,10.0,Calm,Calm,-,N/A,,Clear,0,2014-01-05 04:55:00